Plattsmouth, NE

11:01 AM CST on February 20, 2017 (GMT -0600)
Plattsmouth Municipal

Weather History for KPMV - October, 2013

Change the Weather History Date:

Monday, October 7, 2013

  Actual Average (KOFF) Record (KOFF)
Temperature  
Mean Temperature 58 °F -  
Max Temperature 75 °F 68 °F 86 °F (2007)
Min Temperature 41 °F 45 °F 19 °F (2012)
Degree Days  
Heating Degree Days 7    
Growing Degree Days 8 (Base 50)    
Moisture  
Dew Point 38 °F    
Average Humidity 55    
Maximum Humidity 89    
Minimum Humidity 21    
Precipitation  
Precipitation 0.01 in - - ()
Sea Level Pressure  
Sea Level Pressure 30.04 in    
Wind  
Wind Speed 8 mph (SW)    
Max Wind Speed 16 mph    
Max Gust Speed 23 mph    
Visibility 10 miles    
Events      
Averages and records for this station are not official NWS values.
T = Trace of Precipitation, MM = Missing Value Source: NWS Daily Summary

Daily Weather History Graph

Daily Weather History Graph

Search for Another Location

Airport or City:

Trip Planner

Search our weather history database for the weather conditions in past years. The results will help you decide how hot, cold, wet, or windy it might be!

Date:

Astronomy

Oct. 07, 2013 Rise Set
Actual Time 7:26 AM CDT 6:55 PM CDT
Civil Twilight 6:59 AM CDT 7:22 PM CDT
Nautical Twilight 6:27 AM CDT 7:54 PM CDT
Astronomical Twilight 5:55 AM CDT 8:26 PM CDT
Moon 10:19 AM CDT (10/7) 8:39 PM CDT (10/7)
Length of Visible Light 12h 23m
Length of Day
11h 28m
Waxing Crescent, 9% of the Moon is Illuminated
Oct 7
Waxing Crescent
Oct 11
First Quarter
Oct 18
Full
Oct 26
Last Quarter
Nov 3
New

Hourly Weather History & Observations

Time (CDT) Temp. Windchill Dew Point Humidity Pressure Visibility Wind Dir Wind Speed Gust Speed Precip Events Conditions
12:15 AM 45.9 °F 41.7 °F 38.3 °F 75% 30.01 in 10.0 mi WNW 8.1 mph - N/A   Clear
12:35 AM 45.5 °F 40.8 °F 38.3 °F 76% 30.01 in 10.0 mi WNW 9.2 mph - N/A   Clear
12:55 AM 45.5 °F 41.3 °F 37.9 °F 75% 30.01 in 10.0 mi WNW 8.1 mph - N/A   Clear
1:15 AM 44.8 °F 40.4 °F 38.1 °F 77% 30.01 in 10.0 mi WNW 8.1 mph - N/A   Clear
1:35 AM 44.6 °F 39.7 °F 38.3 °F 79% 30.01 in 10.0 mi WNW 9.2 mph - N/A   Clear
1:55 AM 44.8 °F 41.6 °F 38.1 °F 77% 30.02 in 10.0 mi WNW 5.8 mph - N/A   Clear
2:15 AM 44.1 °F 40.1 °F 37.9 °F 79% 30.02 in 10.0 mi WNW 6.9 mph - N/A   Clear
2:35 AM 43.7 °F 39.7 °F 37.8 °F 80% 30.02 in 10.0 mi WNW 6.9 mph - N/A   Clear
2:55 AM 42.8 °F 38.6 °F 37.8 °F 82% 30.02 in 10.0 mi WNW 6.9 mph - N/A   Clear
3:15 AM 43.0 °F 37.7 °F 37.9 °F 82% 30.02 in 10.0 mi WNW 9.2 mph - N/A   Clear
3:35 AM 42.8 °F 37.5 °F 37.9 °F 83% 30.02 in 10.0 mi West 9.2 mph - N/A   Clear
3:55 AM 43.2 °F 38.4 °F 38.3 °F 83% 30.02 in 10.0 mi West 8.1 mph - N/A   Clear
4:15 AM 42.8 °F 38.0 °F 38.7 °F 85% 30.03 in 10.0 mi West 8.1 mph - N/A   Clear
4:35 AM 43.2 °F 39.0 °F 39.2 °F 86% 30.03 in 10.0 mi West 6.9 mph - N/A   Clear
4:55 AM 43.7 °F 38.6 °F 39.4 °F 85% 30.04 in 10.0 mi WNW 9.2 mph - N/A   Clear
5:15 AM 43.7 °F 39.1 °F 39.6 °F 85% 30.04 in 10.0 mi WNW 8.1 mph - N/A   Clear
5:35 AM 42.4 °F 38.1 °F 39.2 °F 88% 30.04 in 10.0 mi West 6.9 mph - N/A   Clear
5:55 AM 43.2 °F 39.0 °F 39.4 °F 86% 30.04 in 10.0 mi West 6.9 mph - N/A   Clear
6:15 AM 42.8 °F 38.6 °F 39.2 °F 87% 30.05 in 10.0 mi West 6.9 mph - N/A   Clear
6:35 AM 42.3 °F 39.4 °F 39.2 °F 89% 30.04 in 10.0 mi West 4.6 mph - N/A   Clear
6:55 AM 42.3 °F 40.5 °F 38.7 °F 87% 30.05 in 10.0 mi West 3.5 mph - N/A   Clear
7:15 AM 41.2 °F 37.3 °F 38.1 °F 89% 30.05 in 10.0 mi WSW 5.8 mph - N/A   Clear
7:35 AM 41.4 °F 37.6 °F 38.3 °F 89% 30.06 in 10.0 mi WSW 5.8 mph - N/A   Clear
7:55 AM 42.3 °F 38.6 °F 38.5 °F 86% 30.06 in 10.0 mi WSW 5.8 mph - N/A   Clear
8:15 AM 44.4 °F 40.5 °F 39.2 °F 82% 30.06 in 10.0 mi WSW 6.9 mph - N/A   Clear
8:35 AM 46.2 °F 43.3 °F 39.7 °F 78% 30.07 in 10.0 mi WSW 5.8 mph - N/A   Clear
8:55 AM 48.7 °F - 41.0 °F 75% 30.07 in 10.0 mi WSW 3.5 mph - N/A   Clear
9:15 AM 51.1 °F - 41.5 °F 70% 30.07 in 10.0 mi SW 4.6 mph - N/A   Clear
9:35 AM 53.4 °F - 42.4 °F 66% 30.08 in 10.0 mi WSW 3.5 mph - N/A   Clear
9:55 AM 56.3 °F - 42.8 °F 61% 30.08 in 10.0 mi Calm Calm - N/A   Clear
10:15 AM 60.1 °F - 40.8 °F 49% 30.09 in 10.0 mi SW 8.1 mph - N/A   Clear
10:35 AM 61.3 °F - 41.2 °F 48% 30.09 in 10.0 mi SW 9.2 mph - N/A   Clear
10:55 AM 63.9 °F - 40.5 °F 42% 30.09 in 10.0 mi WSW 11.5 mph - N/A   Clear
11:15 AM 66.6 °F - 39.2 °F 37% 30.10 in 10.0 mi WSW 10.4 mph 16.1 mph N/A   Clear
11:35 AM 68.0 °F - 37.6 °F 33% 30.09 in 10.0 mi WSW 10.4 mph 16.1 mph N/A   Clear
11:55 AM 69.3 °F - 36.5 °F 30% 30.09 in 10.0 mi SW 11.5 mph 20.7 mph N/A   Clear
12:15 PM 70.0 °F - 35.1 °F 28% 30.08 in 10.0 mi WSW 11.5 mph 23.0 mph N/A   Clear
12:35 PM 71.2 °F - 34.9 °F 26% 30.08 in 10.0 mi WSW 12.7 mph - N/A   Clear
12:55 PM 71.6 °F - 34.0 °F 25% 30.07 in 10.0 mi SW 15.0 mph - N/A   Clear
1:15 PM 72.7 °F - 34.7 °F 25% 30.07 in 10.0 mi SW 12.7 mph 19.6 mph N/A   Clear
1:35 PM 73.4 °F - 35.4 °F 25% 30.06 in 10.0 mi SSW 11.5 mph 19.6 mph N/A   Clear
1:55 PM 74.1 °F - 34.3 °F 23% 30.05 in 10.0 mi WSW 13.8 mph 21.9 mph 0.01 in   Clear
2:15 PM 74.3 °F - 31.8 °F 21% 30.04 in 10.0 mi WSW 12.7 mph 20.7 mph N/A   Clear
2:35 PM 75.2 °F - 35.2 °F 23% 30.04 in 10.0 mi SSW 16.1 mph 19.6 mph N/A   Clear
2:55 PM 74.7 °F - 34.7 °F 23% 30.03 in 10.0 mi SW 15.0 mph - N/A   Clear
3:15 PM 75.2 °F - 34.5 °F 23% 30.03 in 10.0 mi SW 16.1 mph 21.9 mph N/A   Clear
3:35 PM 74.8 °F - 34.0 °F 23% 30.03 in 10.0 mi WSW 11.5 mph 18.4 mph N/A   Clear
3:55 PM 75.4 °F - 36.1 °F 24% 30.02 in 10.0 mi SW 11.5 mph 16.1 mph N/A   Clear
4:15 PM 75.2 °F - 36.7 °F 25% 30.01 in 10.0 mi SW 11.5 mph 18.4 mph N/A   Clear
4:35 PM 74.7 °F - 36.0 °F 24% 30.01 in 10.0 mi South 10.4 mph 17.3 mph N/A   Clear
4:55 PM 74.3 °F - 36.0 °F 25% 30.01 in 10.0 mi South 10.4 mph 18.4 mph N/A   Clear
5:15 PM 73.9 °F - 36.5 °F 26% 30.01 in 10.0 mi SW 8.1 mph - N/A   Clear
5:35 PM 73.4 °F - 36.9 °F 26% 30.01 in 10.0 mi SSW 8.1 mph - N/A   Clear
5:55 PM 72.3 °F - 37.4 °F 28% 30.01 in 10.0 mi SSW 6.9 mph - N/A   Clear
6:15 PM 71.1 °F - 37.8 °F 30% 30.01 in 10.0 mi SSW 6.9 mph - N/A   Clear
6:35 PM 68.5 °F - 38.5 °F 33% 30.01 in 10.0 mi South 4.6 mph - N/A   Clear
6:55 PM 65.3 °F - 38.7 °F 38% 30.01 in 10.0 mi South 5.8 mph - N/A   Clear
7:15 PM 63.0 °F - 39.6 °F 42% 30.01 in 10.0 mi South 5.8 mph - N/A   Clear
7:35 PM 61.2 °F - 39.7 °F 45% 30.01 in 10.0 mi SSE 5.8 mph - N/A   Clear
7:55 PM 59.5 °F - 40.5 °F 49% 30.01 in 10.0 mi SSE 5.8 mph - N/A   Clear
8:15 PM 59.5 °F - 39.9 °F 48% 30.01 in 10.0 mi South 6.9 mph - N/A   Clear
8:35 PM 59.2 °F - 39.9 °F 49% 30.02 in 10.0 mi South 6.9 mph - N/A   Clear
8:55 PM 57.4 °F - 40.3 °F 53% 30.02 in 10.0 mi South 6.9 mph - N/A   Clear
9:15 PM 58.5 °F - 40.3 °F 51% 30.02 in 10.0 mi SSE 6.9 mph - N/A   Clear
9:35 PM 58.1 °F - 40.3 °F 52% 30.02 in 10.0 mi SSE 6.9 mph - N/A   Clear
9:55 PM 57.7 °F - 40.5 °F 53% 30.03 in 10.0 mi SSE 8.1 mph - N/A   Clear
10:15 PM 57.6 °F - 40.8 °F 54% 30.03 in 10.0 mi SSE 10.4 mph - N/A   Clear
10:35 PM 57.0 °F - 41.2 °F 55% 30.03 in 10.0 mi South 10.4 mph - N/A   Clear
10:55 PM 56.1 °F - 41.4 °F 58% 30.02 in 10.0 mi SSE 9.2 mph - N/A   Clear
11:15 PM 56.3 °F - 41.4 °F 57% 30.03 in 10.0 mi SSE 9.2 mph - N/A   Clear
11:35 PM 55.6 °F - 41.5 °F 59% 30.02 in 10.0 mi SSE 8.1 mph - N/A   Clear
11:55 PM 55.4 °F - 41.7 °F 60% 30.02 in 10.0 mi South 10.4 mph - N/A   Clear